Language: 


Des rapports , des résumés tant et plus, au choix de chacun....


Données statistiques de la station
Quotidien Rapport Janvier 7, 2018 Unités:  Anglais    Métrique   les deux
« Précédent Jour
Suivant Jour »
Quotidien Hebdomadaire Mensuel Annuel Actuel
  Haut: Bas: Moyen:
Température: TemperatureC °F 2.0 °F 3.4 °F
Pt de rosée: DewpointC °F 0.0 °F 2.1 °F
Humidité: Humidity % 83 % 89 %
Vitesse du vent: WindSpeedKMH mph 9.7 mph 19.5 mph
Rafales: WindSpeedGustKMH mph - -
Vent:- - NE
Pression: PressurehPa in 1015.1 in -
Précipitation: 0.0 in    
Historical Graphs
 
 
Données statistiques pour Janvier 7, 2018
Heure Température Point de rosée Pression Vent Vitesse du vent Refales Humidité Pluie (taux horaire)
TemperatureC °F DewpointC °F PressurehPa in Calm     Humidity % HourlyPrecipMM in
00:02 5.6 °F 5.0 °F 1015.1 in NNE 13.7 mph 23.3 mph 93 % 0.0 in
00:07 5.6 °F 5.0 °F 1015.1 in NE 16.6 mph 25.3 mph 93 % 0.0 in
00:11 5.6 °F 5.0 °F 1015.1 in ENE 12.2 mph 25.3 mph 92 % 0.0 in
00:16 5.6 °F 5.0 °F 1015.1 in NE 16.6 mph 23.0 mph 92 % 0.0 in
00:23 5.5 °F 5.0 °F 1015.1 in NNE 15.4 mph 23.0 mph 92 % 0.0 in
00:28 5.5 °F 5.0 °F 1016.1 in NNE 15.4 mph 20.9 mph 91 % 0.0 in
00:32 5.4 °F 4.0 °F 1016.1 in NE 15.4 mph 24.8 mph 91 % 0.0 in
00:33 5.4 °F 4.0 °F 1016.1 in NNE 16.9 mph 24.8 mph 91 % 0.0 in
00:38 5.4 °F 4.0 °F 1016.1 in NE 17.2 mph 25.3 mph 91 % 0.0 in
00:40 5.4 °F 4.0 °F 1016.1 in NE 20.9 mph 25.3 mph 91 % 0.0 in
00:45 5.4 °F 4.0 °F 1016.1 in NNE 16.3 mph 24.8 mph 91 % 0.0 in
00:50 5.4 °F 4.0 °F 1016.1 in NNE 15.1 mph 25.3 mph 91 % 0.0 in
00:55 5.3 °F 4.0 °F 1016.1 in North 16.3 mph 27.7 mph 91 % 0.0 in
00:56 5.3 °F 4.0 °F 1016.1 in NE 19.8 mph 27.7 mph 91 % 0.0 in
00:58 5.3 °F 4.0 °F 1016.1 in NE 28.5 mph 28.5 mph 91 % 0.0 in
01:04 5.3 °F 4.0 °F 1016.1 in NNE 23.3 mph 28.5 mph 91 % 0.0 in
01:09 5.3 °F 4.0 °F 1016.1 in NE 13.0 mph 33.5 mph 91 % 0.0 in
01:14 5.3 °F 4.0 °F 1016.1 in NE 16.9 mph 33.5 mph 92 % 0.0 in
01:19 5.3 °F 4.0 °F 1016.1 in NE 10.5 mph 25.6 mph 92 % 0.0 in
01:22 5.2 °F 4.0 °F 1016.1 in NE 17.2 mph 26.2 mph 92 % 0.0 in
01:27 5.2 °F 4.0 °F 1016.1 in NNE 15.8 mph 26.2 mph 92 % 0.0 in
01:29 5.2 °F 4.0 °F 1016.1 in NE 15.8 mph 26.2 mph 92 % 0.0 in
01:34 5.2 °F 4.0 °F 1016.1 in NNE 21.2 mph 28.0 mph 92 % 0.0 in
01:37 5.1 °F 4.0 °F 1016.1 in NE 24.5 mph 28.0 mph 92 % 0.0 in
01:40 5.1 °F 4.0 °F 1016.1 in NE 28.8 mph 28.8 mph 91 % 0.0 in
01:45 5.1 °F 4.0 °F 1016.1 in NNE 23.3 mph 28.8 mph 90 % 0.0 in
01:47 5.1 °F 4.0 °F 1016.1 in NNE 18.0 mph 28.8 mph 89 % 0.0 in
01:53 5.0 °F 3.0 °F 1016.1 in NE 24.5 mph 26.7 mph 88 % 0.0 in
01:58 5.0 °F 3.0 °F 1016.8 in NNE 19.8 mph 27.0 mph 88 % 0.0 in
02:03 4.9 °F 3.0 °F 1016.8 in NE 19.8 mph 28.0 mph 88 % 0.0 in
02:08 4.9 °F 3.0 °F 1016.8 in NE 15.8 mph 28.0 mph 88 % 0.0 in
02:13 4.8 °F 3.0 °F 1016.8 in NNE 17.2 mph 28.5 mph 87 % 0.0 in
02:18 4.8 °F 3.0 °F 1016.8 in NNE 15.4 mph 28.5 mph 86 % 0.0 in
02:23 4.7 °F 3.0 °F 1016.8 in NNE 17.7 mph 28.0 mph 87 % 0.0 in
02:28 4.7 °F 3.0 °F 1016.8 in NE 20.1 mph 28.0 mph 87 % 0.0 in
02:30 4.7 °F 3.0 °F 1016.8 in NNE 14.0 mph 28.0 mph 87 % 0.0 in
02:35 4.6 °F 3.0 °F 1016.8 in NE 16.9 mph 28.5 mph 87 % 0.0 in
02:40 4.5 °F 3.0 °F 1016.8 in NE 15.8 mph 28.5 mph 87 % 0.0 in
02:51 4.3 °F 3.0 °F 1016.8 in NNE 20.6 mph 25.9 mph 88 % 0.0 in
02:57 4.3 °F 3.0 °F 1016.8 in NE 12.6 mph 27.4 mph 88 % 0.0 in
03:02 4.2 °F 3.0 °F 1016.8 in NE 19.8 mph 27.4 mph 88 % 0.0 in
03:07 4.2 °F 3.0 °F 1016.8 in NE 23.3 mph 25.3 mph 89 % 0.0 in
03:12 4.1 °F 3.0 °F 1016.8 in NE 23.8 mph 28.5 mph 90 % 0.0 in
03:17 4.1 °F 3.0 °F 1016.8 in NE 15.8 mph 28.8 mph 90 % 0.0 in
03:22 4.0 °F 3.0 °F 1016.8 in NNE 14.0 mph 28.8 mph 91 % 0.0 in
03:23 4.0 °F 3.0 °F 1016.8 in NE 23.3 mph 28.8 mph 91 % 0.0 in
03:28 3.9 °F 3.0 °F 1016.8 in NNE 19.8 mph 24.5 mph 92 % 0.0 in
03:33 3.9 °F 3.0 °F 1016.8 in NNW 19.8 mph 28.0 mph 93 % 0.0 in
03:39 3.8 °F 3.0 °F 1016.8 in NNE 13.7 mph 28.0 mph 93 % 0.0 in
03:43 3.7 °F 3.0 °F 1016.8 in NE 12.2 mph 21.6 mph 94 % 0.0 in
03:48 3.7 °F 3.0 °F 1016.8 in NNE 13.7 mph 21.2 mph 94 % 0.0 in
03:50 3.7 °F 3.0 °F 1016.8 in NNE 10.5 mph 21.6 mph 94 % 0.0 in
03:55 3.7 °F 3.0 °F 1016.8 in NNE 13.0 mph 21.6 mph 94 % 0.0 in
04:01 3.7 °F 3.0 °F 1016.8 in NE 15.8 mph 21.6 mph 95 % 0.0 in
04:03 3.7 °F 3.0 °F 1016.8 in NE 21.2 mph 21.2 mph 95 % 0.0 in
04:08 3.7 °F 3.0 °F 1016.8 in NNE 16.3 mph 23.3 mph 94 % 0.0 in
04:13 3.6 °F 3.0 °F 1016.8 in NE 15.8 mph 23.3 mph 94 % 0.0 in
04:18 3.6 °F 3.0 °F 1016.8 in NE 13.7 mph 21.2 mph 94 % 0.0 in
04:24 3.6 °F 3.0 °F 1016.8 in NNE 20.1 mph 21.2 mph 94 % 0.0 in
04:29 3.6 °F 3.0 °F 1018.2 in NNE 20.6 mph 20.6 mph 94 % 0.0 in
04:35 3.7 °F 3.0 °F 1018.2 in NE 20.1 mph 23.0 mph 93 % 0.0 in
04:38 3.7 °F 3.0 °F 1018.2 in NNE 16.6 mph 23.3 mph 93 % 0.0 in
04:44 3.7 °F 3.0 °F 1016.8 in NE 17.7 mph 23.3 mph 93 % 0.0 in
04:49 3.7 °F 3.0 °F 1016.8 in NE 21.9 mph 25.9 mph 93 % 0.0 in
04:54 3.7 °F 3.0 °F 1016.8 in NNE 21.9 mph 25.9 mph 92 % 0.0 in
04:59 3.7 °F 3.0 °F 1016.8 in NE 18.0 mph 30.9 mph 91 % 0.0 in
05:04 3.8 °F 3.0 °F 1016.8 in NE 16.6 mph 30.9 mph 91 % 0.0 in
05:06 3.7 °F 3.0 °F 1016.8 in NE 22.7 mph 30.9 mph 91 % 0.0 in
05:11 3.7 °F 3.0 °F 1018.2 in ENE 21.6 mph 32.0 mph 91 % 0.0 in
05:12 3.7 °F 3.0 °F 1018.2 in ENE 16.9 mph 32.0 mph 91 % 0.0 in
05:17 3.7 °F 3.0 °F 1018.2 in NE 16.6 mph 29.9 mph 91 % 0.0 in
05:22 3.7 °F 3.0 °F 1018.2 in NNE 16.9 mph 29.9 mph 91 % 0.0 in
05:27 3.6 °F 3.0 °F 1018.2 in NNE 24.8 mph 28.0 mph 92 % 0.0 in
05:32 3.5 °F 3.0 °F 1018.2 in NNE 15.8 mph 31.4 mph 92 % 0.0 in
05:33 3.5 °F 3.0 °F 1018.2 in NE 17.2 mph 31.4 mph 92 % 0.0 in
05:34 3.4 °F 2.0 °F 1018.2 in NE 17.7 mph 31.4 mph 92 % 0.0 in
05:39 3.4 °F 3.0 °F 1018.2 in NNE 15.8 mph 31.4 mph 93 % 0.0 in
05:45 3.3 °F 3.0 °F 1018.2 in NE 10.1 mph 25.6 mph 93 % 0.0 in
05:50 3.3 °F 3.0 °F 1018.2 in NE 16.9 mph 29.1 mph 93 % 0.0 in
05:52 3.3 °F 3.0 °F 1018.2 in NE 25.3 mph 29.1 mph 94 % 0.0 in
05:57 3.3 °F 3.0 °F 1018.2 in NE 17.7 mph 35.6 mph 94 % 0.0 in
06:02 3.3 °F 3.0 °F 1018.2 in NE 25.3 mph 35.6 mph 94 % 0.0 in
06:07 3.4 °F 3.0 °F 1018.2 in NE 36.4 mph 36.4 mph 94 % 0.0 in
06:13 3.4 °F 3.0 °F 1018.2 in NE 21.9 mph 36.4 mph 94 % 0.0 in
06:18 3.4 °F 3.0 °F 1018.2 in NNE 29.9 mph 32.0 mph 94 % 0.0 in
06:23 3.3 °F 3.0 °F 1018.2 in NE 20.6 mph 35.6 mph 94 % 0.0 in
06:29 3.3 °F 3.0 °F 1018.2 in NE 29.9 mph 41.4 mph 94 % 0.0 in
06:34 3.3 °F 3.0 °F 1018.2 in NE 27.0 mph 41.4 mph 94 % 0.0 in
06:39 3.4 °F 3.0 °F 1018.2 in NE 20.1 mph 38.1 mph 94 % 0.0 in
06:44 3.3 °F 3.0 °F 1018.2 in NE 30.9 mph 37.0 mph 94 % 0.0 in
06:50 3.3 °F 3.0 °F 1018.2 in NNE 24.5 mph 36.0 mph 94 % 0.0 in
06:51 3.3 °F 3.0 °F 1018.2 in NE 22.4 mph 36.0 mph 94 % 0.0 in
06:56 3.4 °F 3.0 °F 1018.8 in NE 16.6 mph 32.0 mph 94 % 0.0 in
07:02 3.4 °F 3.0 °F 1018.8 in NE 31.7 mph 31.7 mph 94 % 0.0 in
07:07 3.4 °F 3.0 °F 1018.8 in NE 24.8 mph 31.7 mph 94 % 0.0 in
07:12 3.4 °F 3.0 °F 1018.8 in NE 27.7 mph 32.0 mph 95 % 0.0 in
07:16 3.4 °F 3.0 °F 1018.8 in ENE 16.6 mph 32.0 mph 95 % 0.0 in
07:21 3.4 °F 3.0 °F 1018.8 in NE 21.6 mph 31.7 mph 95 % 0.0 in
07:32 3.5 °F 3.0 °F 1018.2 in NE 20.6 mph 37.5 mph 94 % 0.0 in
07:37 3.5 °F 3.0 °F 1018.2 in NE 23.8 mph 37.5 mph 94 % 0.0 in
07:44 3.5 °F 3.0 °F 1018.8 in ENE 21.6 mph 32.0 mph 95 % 0.0 in
07:54 3.6 °F 3.0 °F 1018.8 in NE 24.5 mph 33.5 mph 94 % 0.0 in
07:59 3.6 °F 3.0 °F 1019.9 in NE 20.9 mph 33.5 mph 94 % 0.0 in
08:05 3.6 °F 3.0 °F 1019.9 in ENE 20.1 mph 31.4 mph 94 % 0.0 in
08:10 3.6 °F 3.0 °F 1019.9 in North 20.6 mph 38.1 mph 94 % 0.0 in
08:11 3.6 °F 3.0 °F 1019.9 in NNE 28.0 mph 38.1 mph 94 % 0.0 in
08:16 3.6 °F 3.0 °F 1019.9 in NE 20.1 mph 38.1 mph 94 % 0.0 in
08:21 3.6 °F 3.0 °F 1019.9 in NE 20.1 mph 31.7 mph 94 % 0.0 in
08:26 3.6 °F 3.0 °F 1019.9 in NNE 17.2 mph 28.0 mph 94 % 0.0 in
08:31 3.6 °F 3.0 °F 1020.9 in ENE 20.1 mph 28.0 mph 94 % 0.0 in
08:36 3.6 °F 3.0 °F 1020.9 in NE 28.8 mph 35.6 mph 94 % 0.0 in
08:41 3.6 °F 3.0 °F 1020.9 in NE 24.5 mph 36.4 mph 93 % 0.0 in
08:46 3.6 °F 3.0 °F 1020.9 in NE 16.3 mph 36.4 mph 93 % 0.0 in
08:50 3.6 °F 3.0 °F 1020.9 in ENE 28.5 mph 36.4 mph 93 % 0.0 in
08:55 3.6 °F 3.0 °F 1020.9 in ENE 20.9 mph 32.8 mph 93 % 0.0 in
09:00 3.6 °F 3.0 °F 1020.9 in ENE 20.1 mph 32.8 mph 93 % 0.0 in
09:05 3.6 °F 3.0 °F 1020.9 in NE 16.6 mph 28.8 mph 93 % 0.0 in
09:11 3.6 °F 3.0 °F 1020.9 in NE 18.3 mph 27.7 mph 93 % 0.0 in
09:16 3.6 °F 3.0 °F 1020.9 in East 16.3 mph 23.8 mph 93 % 0.0 in
09:21 3.6 °F 3.0 °F 1020.9 in NNE 25.6 mph 25.6 mph 93 % 0.0 in
09:24 3.6 °F 3.0 °F 1020.9 in NE 20.9 mph 27.7 mph 93 % 0.0 in
09:29 3.6 °F 3.0 °F 1020.9 in NE 17.7 mph 28.5 mph 93 % 0.0 in
09:32 3.5 °F 3.0 °F 1020.9 in NE 28.5 mph 28.5 mph 92 % 0.0 in
09:34 3.5 °F 3.0 °F 1020.9 in NE 20.6 mph 31.4 mph 92 % 0.0 in
09:39 3.5 °F 3.0 °F 1020.9 in NE 21.2 mph 36.7 mph 91 % 0.0 in
09:44 3.5 °F 3.0 °F 1021.9 in NE 22.7 mph 36.7 mph 91 % 0.0 in
09:49 3.5 °F 3.0 °F 1021.9 in NE 22.7 mph 29.9 mph 91 % 0.0 in
09:54 3.5 °F 3.0 °F 1021.9 in NE 27.7 mph 36.4 mph 91 % 0.0 in
10:00 3.5 °F 2.0 °F 1021.9 in ENE 20.6 mph 37.5 mph 90 % 0.0 in
10:02 3.5 °F 3.0 °F 1021.9 in ENE 18.0 mph 37.5 mph 91 % 0.0 in
10:07 3.5 °F 3.0 °F 1021.9 in NE 22.4 mph 37.0 mph 91 % 0.0 in
10:12 3.6 °F 3.0 °F 1021.9 in NE 16.9 mph 30.6 mph 92 % 0.0 in
10:17 3.6 °F 3.0 °F 1021.9 in NE 32.8 mph 32.8 mph 91 % 0.0 in
10:22 3.6 °F 3.0 °F 1021.9 in ENE 28.0 mph 32.8 mph 91 % 0.0 in
10:24 3.6 °F 2.0 °F 1021.9 in NE 22.7 mph 32.8 mph 90 % 0.0 in
10:29 3.6 °F 3.0 °F 1021.9 in NNE 23.8 mph 31.4 mph 91 % 0.0 in
10:32 3.6 °F 2.0 °F 1021.9 in NE 20.9 mph 31.7 mph 90 % 0.0 in
10:37 3.6 °F 2.0 °F 1021.9 in NE 17.7 mph 36.0 mph 89 % 0.0 in
10:42 3.6 °F 2.0 °F 1022.9 in NE 21.2 mph 36.0 mph 90 % 0.0 in
10:45 3.6 °F 2.0 °F 1022.9 in NE 24.8 mph 36.0 mph 89 % 0.0 in
10:50 3.6 °F 2.0 °F 1022.9 in ENE 27.7 mph 34.6 mph 89 % 0.0 in
10:55 3.6 °F 2.0 °F 1022.9 in NE 20.6 mph 31.7 mph 89 % 0.0 in
11:00 3.6 °F 2.0 °F 1022.9 in NE 27.4 mph 29.9 mph 90 % 0.0 in
11:06 3.6 °F 2.0 °F 1022.9 in ENE 16.3 mph 28.5 mph 90 % 0.0 in
11:10 3.6 °F 2.0 °F 1022.9 in ENE 20.6 mph 36.0 mph 90 % 0.0 in
11:15 3.6 °F 2.0 °F 1022.9 in ENE 21.2 mph 36.0 mph 90 % 0.0 in
11:20 3.6 °F 2.0 °F 1022.9 in NE 16.6 mph 34.6 mph 89 % 0.0 in
11:22 3.6 °F 2.0 °F 1022.9 in NE 20.6 mph 32.0 mph 89 % 0.0 in
11:26 3.6 °F 2.0 °F 1022.9 in NE 17.2 mph 32.8 mph 89 % 0.0 in
11:27 3.6 °F 2.0 °F 1022.9 in NE 21.2 mph 32.8 mph 89 % 0.0 in
11:32 3.6 °F 2.0 °F 1022.9 in NE 20.1 mph 34.3 mph 89 % 0.0 in
11:34 3.6 °F 2.0 °F 1022.9 in ENE 18.0 mph 34.3 mph 89 % 0.0 in
11:39 3.6 °F 2.0 °F 1022.9 in ENE 20.9 mph 29.9 mph 89 % 0.0 in
11:41 3.7 °F 2.0 °F 1022.9 in NE 31.7 mph 31.7 mph 89 % 0.0 in
11:45 3.7 °F 2.0 °F 1022.9 in NE 28.0 mph 31.7 mph 89 % 0.0 in
11:50 3.7 °F 2.0 °F 1022.9 in NE 22.4 mph 31.7 mph 88 % 0.0 in
11:51 3.7 °F 2.0 °F 1022.9 in NE 23.8 mph 31.7 mph 88 % 0.0 in
11:55 3.7 °F 2.0 °F 1022.9 in NE 23.8 mph 33.1 mph 88 % 0.0 in
12:00 3.7 °F 2.0 °F 1022.9 in ENE 28.0 mph 36.0 mph 87 % 0.0 in
12:02 3.7 °F 2.0 °F 1022.9 in NNE 26.7 mph 36.0 mph 87 % 0.0 in
12:07 3.7 °F 2.0 °F 1022.9 in NE 27.7 mph 36.0 mph 88 % 0.0 in
12:12 3.7 °F 2.0 °F 1021.9 in NE 20.1 mph 31.7 mph 87 % 0.0 in
12:13 3.7 °F 2.0 °F 1021.9 in NE 24.5 mph 31.7 mph 87 % 0.0 in
12:19 3.7 °F 2.0 °F 1021.9 in NNE 17.2 mph 27.7 mph 87 % 0.0 in
12:20 3.7 °F 2.0 °F 1021.9 in NE 25.6 mph 27.7 mph 87 % 0.0 in
12:23 3.7 °F 2.0 °F 1021.9 in East 17.7 mph 32.0 mph 87 % 0.0 in
12:25 3.7 °F 2.0 °F 1021.9 in NE 32.0 mph 32.0 mph 87 % 0.0 in
12:30 3.7 °F 2.0 °F 1021.9 in East 27.7 mph 34.3 mph 87 % 0.0 in
12:37 3.7 °F 2.0 °F 1021.9 in NE 15.1 mph 34.3 mph 87 % 0.0 in
12:38 3.7 °F 2.0 °F 1021.9 in NE 25.6 mph 30.2 mph 88 % 0.0 in
12:44 3.7 °F 2.0 °F 1021.9 in NNE 12.6 mph 30.9 mph 87 % 0.0 in
12:48 3.6 °F 2.0 °F 1021.9 in East 23.8 mph 30.9 mph 87 % 0.0 in
12:53 3.6 °F 2.0 °F 1021.9 in NE 28.8 mph 28.8 mph 87 % 0.0 in
13:00 3.6 °F 2.0 °F 1021.9 in NE 22.7 mph 28.8 mph 87 % 0.0 in
13:01 3.6 °F 2.0 °F 1021.9 in ENE 20.6 mph 28.8 mph 87 % 0.0 in
13:06 3.4 °F 1.0 °F 1021.9 in NE 22.7 mph 32.0 mph 86 % 0.0 in
13:11 3.4 °F 1.0 °F 1021.9 in ENE 22.7 mph 32.0 mph 86 % 0.0 in
13:12 3.4 °F 2.0 °F 1021.9 in NE 14.0 mph 32.0 mph 87 % 0.0 in
13:17 3.4 °F 2.0 °F 1021.9 in ENE 17.2 mph 31.7 mph 87 % 0.0 in
13:21 3.4 °F 2.0 °F 1021.9 in NE 27.0 mph 30.2 mph 87 % 0.0 in
13:26 3.4 °F 2.0 °F 1021.9 in NE 27.4 mph 32.0 mph 87 % 0.0 in
13:41 3.4 °F 2.0 °F 1021.9 in NNE 20.6 mph 31.4 mph 87 % 0.0 in
13:46 3.4 °F 2.0 °F 1021.9 in NE 21.9 mph 28.0 mph 87 % 0.0 in
13:50 3.4 °F 2.0 °F 1021.9 in NE 23.3 mph 28.0 mph 87 % 0.0 in
13:56 3.4 °F 2.0 °F 1020.9 in NE 28.0 mph 28.0 mph 87 % 0.0 in
13:58 3.4 °F 2.0 °F 1020.9 in NE 19.8 mph 28.0 mph 87 % 0.0 in
14:03 3.4 °F 2.0 °F 1020.9 in ENE 21.9 mph 28.0 mph 87 % 0.0 in
14:04 3.3 °F 2.0 °F 1020.9 in NE 25.6 mph 36.0 mph 87 % 0.0 in
14:09 3.3 °F 2.0 °F 1020.9 in NE 18.3 mph 36.0 mph 87 % 0.0 in
14:12 3.3 °F 2.0 °F 1020.9 in NE 20.9 mph 36.0 mph 87 % 0.0 in
14:17 3.2 °F 2.0 °F 1020.9 in NE 25.6 mph 37.8 mph 87 % 0.0 in
14:18 3.2 °F 2.0 °F 1020.9 in NE 28.0 mph 37.8 mph 87 % 0.0 in
14:23 3.2 °F 2.0 °F 1020.9 in NE 31.7 mph 38.5 mph 87 % 0.0 in
14:27 3.2 °F 2.0 °F 1020.9 in NE 16.6 mph 38.5 mph 87 % 0.0 in
14:32 3.2 °F 2.0 °F 1020.9 in ENE 24.5 mph 36.7 mph 87 % 0.0 in
14:33 3.2 °F 2.0 °F 1020.9 in NE 33.5 mph 36.7 mph 87 % 0.0 in
14:38 3.1 °F 1.0 °F 1020.9 in ENE 22.4 mph 38.5 mph 86 % 0.0 in
14:43 3.1 °F 1.0 °F 1020.9 in NE 28.5 mph 37.5 mph 86 % 0.0 in
14:48 3.2 °F 1.0 °F 1020.9 in ENE 19.8 mph 37.5 mph 86 % 0.0 in
14:53 3.2 °F 1.0 °F 1020.9 in ENE 24.5 mph 28.8 mph 86 % 0.0 in
14:58 3.3 °F 1.0 °F 1020.9 in ENE 17.7 mph 32.0 mph 86 % 0.0 in
15:02 3.3 °F 1.0 °F 1020.9 in NNE 24.8 mph 32.0 mph 86 % 0.0 in
15:07 3.2 °F 1.0 °F 1020.9 in NE 16.3 mph 27.7 mph 86 % 0.0 in
15:12 3.2 °F 2.0 °F 1021.9 in NE 28.0 mph 28.8 mph 87 % 0.0 in
15:14 3.2 °F 1.0 °F 1021.9 in NNE 16.6 mph 28.8 mph 86 % 0.0 in
15:19 3.2 °F 2.0 °F 1021.9 in NE 10.5 mph 28.8 mph 87 % 0.0 in
15:24 3.2 °F 2.0 °F 1021.9 in ENE 20.6 mph 23.8 mph 88 % 0.0 in
15:29 3.2 °F 2.0 °F 1021.9 in ENE 23.3 mph 23.8 mph 87 % 0.0 in
15:35 3.2 °F 2.0 °F 1021.9 in NE 14.8 mph 26.7 mph 87 % 0.0 in
15:40 3.3 °F 2.0 °F 1021.9 in NE 16.3 mph 26.7 mph 88 % 0.0 in
15:45 3.3 °F 2.0 °F 1021.9 in NE 13.7 mph 17.7 mph 88 % 0.0 in
15:50 3.3 °F 2.0 °F 1021.9 in NNE 13.7 mph 19.5 mph 88 % 0.0 in
15:53 3.3 °F 2.0 °F 1021.9 in NE 13.7 mph 19.5 mph 88 % 0.0 in
15:55 3.3 °F 2.0 °F 1021.9 in NE 11.9 mph 19.5 mph 88 % 0.0 in
16:00 3.3 °F 2.0 °F 1021.9 in NE 18.3 mph 20.6 mph 88 % 0.0 in
16:06 3.3 °F 2.0 °F 1021.9 in ENE 16.6 mph 20.6 mph 88 % 0.0 in
16:08 3.3 °F 2.0 °F 1021.9 in ENE 14.8 mph 20.6 mph 88 % 0.0 in
16:13 3.3 °F 2.0 °F 1021.9 in ENE 14.0 mph 17.2 mph 88 % 0.0 in
16:18 3.2 °F 2.0 °F 1021.9 in NE 23.3 mph 24.5 mph 88 % 0.0 in
16:24 3.2 °F 2.0 °F 1021.9 in NE 17.2 mph 24.5 mph 88 % 0.0 in
16:27 3.3 °F 2.0 °F 1021.9 in NE 16.6 mph 23.3 mph 88 % 0.0 in
16:32 3.3 °F 2.0 °F 1021.9 in NNE 16.9 mph 23.3 mph 88 % 0.0 in
16:37 3.3 °F 2.0 °F 1021.9 in NNE 16.6 mph 28.5 mph 87 % 0.0 in
16:42 3.3 °F 2.0 °F 1021.9 in NE 9.7 mph 28.5 mph 87 % 0.0 in
16:46 3.3 °F 2.0 °F 1021.9 in ENE 20.1 mph 25.6 mph 88 % 0.0 in
16:51 3.2 °F 2.0 °F 1021.9 in NE 13.0 mph 25.3 mph 88 % 0.0 in
16:56 3.2 °F 2.0 °F 1021.9 in NE 13.7 mph 27.4 mph 87 % 0.0 in
17:01 3.2 °F 2.0 °F 1021.9 in NE 11.6 mph 27.4 mph 87 % 0.0 in
17:05 3.1 °F 1.0 °F 1021.9 in ENE 12.2 mph 21.2 mph 87 % 0.0 in
17:11 3.1 °F 1.0 °F 1021.9 in NE 20.1 mph 28.5 mph 87 % 0.0 in
17:14 3.1 °F 1.0 °F 1021.9 in NE 16.6 mph 28.5 mph 87 % 0.0 in
17:19 3.1 °F 1.0 °F 1021.9 in NE 20.6 mph 28.5 mph 87 % 0.0 in
17:24 3.1 °F 1.0 °F 1021.9 in NE 16.9 mph 25.9 mph 87 % 0.0 in
17:25 3.1 °F 1.0 °F 1021.9 in ENE 17.2 mph 25.9 mph 87 % 0.0 in
17:30 3.1 °F 1.0 °F 1021.9 in ENE 17.2 mph 26.2 mph 87 % 0.0 in
17:35 3.1 °F 1.0 °F 1021.9 in NE 16.6 mph 28.5 mph 86 % 0.0 in
17:41 3.2 °F 1.0 °F 1021.9 in ENE 16.6 mph 28.5 mph 86 % 0.0 in
17:46 3.1 °F 1.0 °F 1021.9 in ENE 16.6 mph 28.5 mph 86 % 0.0 in
17:51 3.1 °F 1.0 °F 1021.9 in NNE 18.3 mph 26.7 mph 86 % 0.0 in
17:56 3.1 °F 1.0 °F 1021.9 in NE 19.8 mph 30.2 mph 85 % 0.0 in
18:01 3.1 °F 1.0 °F 1021.9 in NE 17.2 mph 30.2 mph 85 % 0.0 in
18:06 3.0 °F 1.0 °F 1021.9 in NE 16.9 mph 28.5 mph 85 % 0.0 in
18:11 3.0 °F 1.0 °F 1021.9 in NE 14.0 mph 28.5 mph 85 % 0.0 in
18:16 3.0 °F 1.0 °F 1021.9 in ENE 23.8 mph 27.4 mph 85 % 0.0 in
18:21 2.9 °F 1.0 °F 1021.9 in NE 19.8 mph 27.4 mph 85 % 0.0 in
18:30 2.8 °F 1.0 °F 1021.9 in ENE 24.5 mph 34.6 mph 85 % 0.0 in
18:35 2.7 °F 1.0 °F 1021.9 in NNE 16.3 mph 34.6 mph 84 % 0.0 in
18:40 2.7 °F 1.0 °F 1021.9 in ENE 21.2 mph 28.0 mph 84 % 0.0 in
18:45 2.6 °F 1.0 °F 1021.9 in ENE 17.2 mph 28.5 mph 84 % 0.0 in
18:49 2.6 °F 1.0 °F 1021.9 in ENE 19.5 mph 28.5 mph 85 % 0.0 in
18:54 2.6 °F 1.0 °F 1021.9 in NE 21.6 mph 27.7 mph 84 % 0.0 in
18:59 2.6 °F 1.0 °F 1021.9 in NE 23.3 mph 27.7 mph 84 % 0.0 in
19:05 2.5 °F 1.0 °F 1021.9 in ENE 17.7 mph 27.7 mph 84 % 0.0 in
19:09 2.5 °F 1.0 °F 1021.9 in NE 16.3 mph 28.5 mph 84 % 0.0 in
19:14 2.5 °F 1.0 °F 1022.9 in NE 21.2 mph 39.3 mph 84 % 0.0 in
19:19 2.5 °F 1.0 °F 1022.9 in ENE 19.8 mph 39.3 mph 84 % 0.0 in
19:24 2.4 °F 0.0 °F 1022.9 in NE 14.8 mph 32.3 mph 84 % 0.0 in
19:29 2.4 °F 0.0 °F 1022.9 in NE 16.3 mph 28.0 mph 84 % 0.0 in
19:34 2.4 °F 0.0 °F 1022.9 in ENE 16.3 mph 28.5 mph 84 % 0.0 in
19:39 2.4 °F 0.0 °F 1022.9 in NE 15.1 mph 31.4 mph 84 % 0.0 in
19:44 2.4 °F 0.0 °F 1022.9 in ENE 13.0 mph 31.4 mph 84 % 0.0 in
19:49 2.3 °F 0.0 °F 1022.9 in ENE 20.6 mph 26.7 mph 84 % 0.0 in
19:54 2.3 °F 0.0 °F 1022.9 in ENE 19.8 mph 27.4 mph 83 % 0.0 in
19:57 2.3 °F 0.0 °F 1022.9 in ENE 15.4 mph 27.4 mph 84 % 0.0 in
20:07 2.2 °F 0.0 °F 1022.9 in NE 19.8 mph 25.3 mph 84 % 0.0 in
20:12 2.2 °F 0.0 °F 1022.9 in NE 16.9 mph 25.6 mph 84 % 0.0 in
20:17 2.2 °F 0.0 °F 1022.9 in ENE 11.9 mph 25.6 mph 84 % 0.0 in
20:23 2.1 °F 0.0 °F 1022.9 in ENE 16.6 mph 24.5 mph 84 % 0.0 in
20:24 2.1 °F 0.0 °F 1022.9 in NE 21.9 mph 24.8 mph 84 % 0.0 in
20:29 2.2 °F 0.0 °F 1021.9 in NE 20.1 mph 31.7 mph 84 % 0.0 in
20:35 2.2 °F 0.0 °F 1021.9 in NE 16.3 mph 31.7 mph 84 % 0.0 in
20:40 2.2 °F 0.0 °F 1021.9 in ENE 20.6 mph 25.9 mph 84 % 0.0 in
20:41 2.2 °F 0.0 °F 1022.9 in NE 17.7 mph 25.9 mph 84 % 0.0 in
20:46 2.1 °F 0.0 °F 1022.9 in NE 24.8 mph 25.9 mph 84 % 0.0 in
20:51 2.1 °F 0.0 °F 1022.9 in NE 16.9 mph 24.8 mph 84 % 0.0 in
20:56 2.1 °F 0.0 °F 1022.9 in East 21.2 mph 26.7 mph 84 % 0.0 in
21:01 2.1 °F 0.0 °F 1022.9 in NNE 16.9 mph 26.7 mph 85 % 0.0 in
21:04 2.1 °F 0.0 °F 1022.9 in ENE 12.6 mph 26.7 mph 85 % 0.0 in
21:09 2.1 °F 0.0 °F 1022.9 in NE 19.5 mph 27.4 mph 85 % 0.0 in
21:14 2.1 °F 0.0 °F 1022.9 in ENE 16.9 mph 27.4 mph 84 % 0.0 in
21:24 2.1 °F 0.0 °F 1022.9 in ENE 16.9 mph 26.2 mph 85 % 0.0 in
21:29 2.1 °F 0.0 °F 1023.9 in ENE 15.4 mph 21.2 mph 85 % 0.0 in
21:35 2.1 °F 0.0 °F 1023.9 in ENE 17.2 mph 24.8 mph 85 % 0.0 in
21:40 2.1 °F 0.0 °F 1023.9 in ENE 17.2 mph 24.8 mph 85 % 0.0 in
21:45 2.1 °F 0.0 °F 1022.9 in NE 15.8 mph 27.4 mph 85 % 0.0 in
21:52 2.0 °F 0.0 °F 1022.9 in ENE 18.3 mph 27.0 mph 85 % 0.0 in
21:58 2.0 °F 0.0 °F 1022.9 in NE 16.9 mph 33.5 mph 86 % 0.0 in
22:03 2.0 °F 0.0 °F 1022.9 in NE 20.1 mph 33.5 mph 86 % 0.0 in
22:08 2.0 °F 0.0 °F 1022.9 in NE 15.8 mph 21.9 mph 86 % 0.0 in
22:13 2.0 °F 0.0 °F 1022.9 in NE 17.7 mph 21.2 mph 86 % 0.0 in
22:16 2.0 °F 0.0 °F 1022.9 in ENE 19.5 mph 21.2 mph 86 % 0.0 in
22:21 2.0 °F 1.0 °F 1022.9 in ENE 20.9 mph 21.2 mph 87 % 0.0 in
22:26 2.0 °F 1.0 °F 1022.9 in NE 21.2 mph 23.8 mph 87 % 0.0 in
22:30 2.0 °F 1.0 °F 1022.9 in NE 20.9 mph 28.5 mph 87 % 0.0 in
22:35 2.1 °F 1.0 °F 1022.9 in ENE 15.4 mph 28.5 mph 87 % 0.0 in
22:40 2.1 °F 1.0 °F 1022.9 in NE 13.0 mph 24.5 mph 87 % 0.0 in
22:45 2.1 °F 1.0 °F 1022.9 in NE 16.9 mph 21.2 mph 87 % 0.0 in
22:50 2.1 °F 1.0 °F 1022.9 in NE 17.2 mph 23.3 mph 87 % 0.0 in
22:55 2.1 °F 1.0 °F 1022.9 in ENE 15.4 mph 23.3 mph 88 % 0.0 in
23:01 2.1 °F 1.0 °F 1022.9 in NE 16.3 mph 23.3 mph 88 % 0.0 in
23:06 2.1 °F 1.0 °F 1022.9 in NE 16.6 mph 23.3 mph 88 % 0.0 in
23:11 2.1 °F 1.0 °F 1022.9 in NE 18.0 mph 23.8 mph 88 % 0.0 in
23:16 2.1 °F 1.0 °F 1022.9 in ENE 14.0 mph 23.8 mph 88 % 0.0 in
23:20 2.2 °F 1.0 °F 1022.9 in NE 14.0 mph 31.4 mph 88 % 0.0 in
23:25 2.2 °F 1.0 °F 1022.9 in NE 13.7 mph 31.4 mph 88 % 0.0 in
23:31 2.2 °F 1.0 °F 1022.9 in NE 13.7 mph 31.4 mph 88 % 0.0 in
23:36 2.2 °F 1.0 °F 1022.9 in NE 13.7 mph 31.4 mph 88 % 0.0 in
23:38 2.2 °F 1.0 °F 1022.9 in NE 13.7 mph 31.4 mph 88 % 0.0 in
23:43 2.2 °F 1.0 °F 1022.9 in NE 13.7 mph 31.4 mph 88 % 0.0 in
23:48 2.2 °F 1.0 °F 1022.9 in NE 13.7 mph 31.4 mph 88 % 0.0 in
23:53 2.2 °F 1.0 °F 1022.9 in NE 13.7 mph 31.4 mph 88 % 0.0 in
23:58 2.2 °F 1.0 °F 1022.9 in NE 13.7 mph 31.4 mph 88 % 0.0 in
Le Gheer Warneton
Courtoisie de Weather Underground - 2.5 mb

Mise a jour : 24/02/2018 22:41:11
Généré par Cumulus 1.9.4 (1099)